Regional Weather Roundup
Issued by NWS Kansas City/Pleasant Hill, MO

Home | Current Version | Previous Version | Text Only | Print | Product List | Glossary On
Versions: 1 2 3 4 5 6 7 8 9 10 11 12 13 14 15 16 17 18 19 20 21 22 23 24 25 26 27 28 29 30 31 32 33 34 35 36 37 38 39 40 41 42 43 44 45 46 47 48 49 50
000
ASUS43 KEAX 310010
RWREAX

WEATHER ROUNDUP FOR EASTERN KANSAS AND NORTHWEST MISSOURI
NATIONAL WEATHER SERVICE KANSAS CITY/PLEASANT HILL MO
700 PM CDT WED JUL 30 2014

KSZ040-057-103>105-MOZ028-029-037-043-310100-
...KANSAS CITY METROPOLITAN AREA...

CITY           SKY/WX    TMP DP  RH WIND       PRES   REMARKS
K.C. INTL      PTSUNNY   79  56  45 N5        30.08S
6HR MIN TEMP:  76; 6HR MAX TEMP:  81;

K.C. DOWNTOWN  PTSUNNY   78  56  46 NE7       30.06S
6HR MIN TEMP:  78; 6HR MAX TEMP:  82;

LEES SUMMIT    CLOUDY    77  56  48 NE5       30.08S
6HR MIN TEMP:  76; 6HR MAX TEMP:  80;

OLATHE - IXD   CLOUDY    75  60  59 S7        30.09S
6HR MIN TEMP:  74; 6HR MAX TEMP:  78;

OLATHE - OJC   CLOUDY    74  61  63 S5        30.08S
6HR MIN TEMP:  74; 6HR MAX TEMP:  77;

LAWRENCE       PTSUNNY   80  60  50 CALM      30.08S

$$

MOZ001>008-011>017-020>025-030>033-038>040-044>046-053-054-310100-
...NORTHERN AND CENTRAL MISSOURI...

CITY           SKY/WX    TMP DP  RH WIND       PRES   REMARKS
ST. JOSEPH     MOSUNNY   79  57  46 NE6       30.07F
6HR MIN TEMP:  76; 6HR MAX TEMP:  81;

MOSBY          MOCLDY    79  52  38 CALM      30.06S
WHITEMAN AFB   PTSUNNY   75  51  42 SW7       30.06F
6HR MIN TEMP:  75; 6HR MAX TEMP:  79;

CLINTON        CLOUDY    75  64  69 CALM      30.08S
SEDALIA        CLOUDY    75  59  57 SW6       30.07S
6HR MIN TEMP:  75; 6HR MAX TEMP:  81;

WARSAW         NOT AVBL
MARSHALL       PTSUNNY   81  61  50 CALM      30.07S
CHILLICOTHE      N/A     81  56  42 N3        30.07S
6HR MIN TEMP:  79; 6HR MAX TEMP:  84;

MOBERLY        MOSUNNY   79  57  47 NE6       30.06F
KIRKSVILLE     MOSUNNY   78  57  48 NE5       30.08S
6HR MIN TEMP:  77; 6HR MAX TEMP:  82;


$$

MOZ041-047>049-056>058-063>065-088>090-097-310100-
...EASTERN AND SOUTHERN MISSOURI...

CITY           SKY/WX    TMP DP  RH WIND       PRES   REMARKS
ST. LOUIS INTL PTSUNNY   82  55  39 NE6       30.04F
6HR MIN TEMP:  82; 6HR MAX TEMP:  86;

SPIRIT OF STL  PTSUNNY   81  55  40 N5        30.03S
COLUMBIA       PTSUNNY   79  58  48 N5        30.06S
JEFFERSON CITY CLOUDY    77  60  55 SW8       30.04S
MEXICO         PTSUNNY   79  63  57 N3        30.06S
HANNIBAL       MOSUNNY   77  55  47 CALM      30.06S
ROLLA          CLOUDY    74  57  55 SW5       30.06S
LEBANON        CLOUDY    72  57  60 CALM      30.09F
OSAGE BEACH    CLOUDY    73  61  64 W3        30.07S
SPRINGFIELD    LGT RAIN  68  65  90 SW5       30.09S
BRANSON        LGT RAIN  66  66 100 CALM      30.11S
JOPLIN         LGT RAIN  67  66  97 VRB6      30.08F FOG
WEST PLAINS    CLOUDY    68  64  87 W5        30.10F
MALDEN         CLOUDY    79  63  57 SW3       30.06F

$$

IAZ060-094-KSZ022-034>040-054-083-096-NEZ052-066-093-310100-
...KANSAS...SOUTHEAST NEBRASKA AND IOWA...

CITY           SKY/WX    TMP DP  RH WIND       PRES   REMARKS
TOPEKA         PTSUNNY   80  57  45 NE6       30.08S
6HR MIN TEMP:  77; 6HR MAX TEMP:  82;

MANHATTAN      MOSUNNY   78  52  40 NE6       30.08S
EMPORIA        CLOUDY    71  63  75 NE5       30.09F
CHANUTE        CLOUDY    69  65  86 NE5       30.08F
WICHITA        CLOUDY    68  65  90 NE10      30.09F
OMAHA          PTSUNNY   80  52  37 NE9       30.09F
LINCOLN        MOSUNNY   80  52  37 N9        30.11S
FALLS CITY     SUNNY     80  55  42 N5        30.08S
LAMONI         SUNNY     78  57  48 N6        30.08S
DES MOINES     MOSUNNY   78  53  41 N5        30.06F

$$




USA.gov is the U.S. government's official web portal to all federal, state and local government web resources and services.